Hourly Data Report for September 13, 2017

All times are specified in Local Standard Time (LST). Add 1 hour to adjust for Daylight Saving Time where and when it is observed.

IQALUIT CLIMATE
NUNAVUT

63°44'50.000" N
68°32'40.000" W
33.50 m
2402592
71321
XFB

Download Data

Hourly Data (September 2017)
Hourly Data Report for September 13, 2017
Temp Definition
°C
Dew Point Temp Definition
°C
Rel Hum Definition
%
Wind Dir Definition
10's deg

Wind Spd Definition
km/h
Visibility Definition
km
Stn Press Definition
kPa
Hmdx Definition


Wind Chill Definition


Weather Definition


TIME
00:00 3.6 2.5 92 8 11   99.16     LegendNANA
01:00 3.6 2.5 93 11 8   99.17     LegendNANA
02:00 3.5 2.8 95 11 9   99.17     LegendNANA
03:00 3.4 2.7 95 11 7   99.20     LegendNANA
04:00 3.4 2.8 96 11 3   99.20     LegendNANA
05:00 3.5 3.0 97 5 3   99.22     LegendNANA
06:00 3.7 3.2 97 36 31   99.23     LegendNANA
07:00 3.6 3.1 97 25 4   99.27     LegendNANA
08:00 3.8 3.4 97 29 35   99.28     LegendNANA
09:00 4.1 3.7 97 23 6   99.30     LegendNANA
10:00 4.4 4.0 97 26 21   99.31     LegendNANA
11:00 4.7 4.1 96 31 5   99.30     LegendNANA
12:00 4.2 3.6 96 24 5   99.33     LegendNANA
13:00 4.6 4.0 96 24 7   99.33     LegendNANA
14:00 4.9 4.3 95 21 10   99.35     LegendNANA
15:00 5.3 4.4 94 25 6   99.36     LegendNANA
16:00 5.0 4.4 96 31 5   99.38     LegendNANA
17:00 5.6 4.9 95 33 6   99.41     LegendNANA
18:00 5.9 4.6 92 19 42   99.43     LegendNANA
19:00 6.4 3.6 82 6 23   99.44     LegendNANA
20:00 6.3 3.2 81 6 25   99.46     LegendNANA
21:00 6.2 2.6 78 6 24   99.45     LegendNANA
22:00 6.1 2.4 77 6 29   99.43     LegendNANA
23:00 5.6 2.8 82 5 31   99.41     LegendNANA

Notes on Data Quality.

Legend

  • E = Estimated
  • M = Missing
  • NA = Not Available
  • ‡ = Partner data that is not subject to review by the National Climate Archives
Date modified: